Regional Weather Roundup
Issued by NWS

Home | Current Version | Previous Version | Graphics & Text | Print | Product List | Glossary On
Versions: 1 2 3 4 5 6 7 8 9 10 11 12 13 14 15 16 17 18 19 20 21 22 23 24 25 26 27 28 29 30 31 32 33 34 35 36 37 38 39 40 41 42 43 44 45 46 47 48 49 50
000
ASUS43 KLMK 212002
RWRKY
KENTUCKY REGIONAL WEATHER ROUNDUP
NATIONAL WEATHER SERVICE LOUISVILLE KY
300 PM EST SUN DEC 21 2014

NOTE "FAIR" INDICATES FEW OR NO CLOUDS BELOW 12,000 FEET
WITH NO SIGNIFICANT WEATHER AND/OR OBSTRUCTIONS TO VISIBILITY.

KYZ001>023-026-027-061>063-070>075-212100-
WESTERN AND SOUTH CENTRAL KENTUCKY

CITY           SKY/WX    TMP DP  RH WIND       PRES   REMARKS
PADUCAH        SUNNY     49  32  52 E6        30.09F
HENDERSON      MOSUNNY   45  28  53 E7        30.13F
OWENSBORO      SUNNY     45  30  55 VRB6      30.14F
HOPKINSVILLE   NOT AVBL
BOWLING GREEN  PTSUNNY   50  29  44 NE6       30.12F
GLASGOW        NOT AVBL
$$

KYZ024-025-028>034-038-045-046-053-212100-
NORTH CENTRAL KENTUCKY

CITY           SKY/WX    TMP DP  RH WIND       PRES   REMARKS
LOUISVILLE/SDF PTSUNNY   43  29  57 E7        30.16F
LOUISVILLE/LOU PTSUNNY   42  28  57 VRB3      30.17F
FORT KNOX      MOSUNNY   42  28  58 E3        30.14S
$$

KYZ035>037-039>044-047>052-055>060-089>105-212100-
NORTHEAST KENTUCKY

CITY           SKY/WX    TMP DP  RH WIND       PRES   REMARKS
LEXINGTON      MOSUNNY   42  28  57 E8        30.16F
COVINGTON      PTSUNNY   38  25  59 E7        30.18F WCI  33
FRANKFORT      MOSUNNY   40  28  62 E8        30.16F WCI  34
$$

KYZ054-064>069-076>088-106>120-212100-
SOUTHEAST KENTUCKY

CITY           SKY/WX    TMP DP  RH WIND       PRES   REMARKS
JACKSON        SUNNY     44  26  49 NE3       30.16F
LONDON         SUNNY     48  28  46 CALM      30.13F
SOMERSET       NOT AVBL
MIDDLESBORO    SUNNY     51  34  52 S3        30.13F
MONTICELLO     CLEAR     50  30  46 N3        30.14F
$$



USA.gov is the U.S. government's official web portal to all federal, state and local government web resources and services.